Flag Weather past 2 weeks in Köniz, Bern, Switzerland

Now
46 °F

Low clouds.


Feels Like: 46 °F
Forecast: 38 / 53 °F
Wind: 2 mph from North

Location: Bern / Belp

Current Time: Nov 26, 2014 at 5:37:27 AM

Latest Report: Nov 26, 2014 at 4:50 AM


Visibility: 6 mi

Pressure: 29.98 "Hg

Humidity: 100%

Dew point: 46 °F

Location of KönizLocation

Historic Weather in Köniz — Graph

°F

Köniz temperature yesterday

Maximum temperature yesterday: 48 °F (at 9:50 AM)
Minimum temperature yesterday: 43 °F (at 3:20 AM)
Average temperature yesterday: 47 °F

Past Weeks' High & Low Weather Summary

 TemperatureHumidityPressure
High63 °F (Nov 24, 2:20 PM)100% (Nov 11, 3:20 AM)30.24 "Hg (Nov 11, 3:20 AM)
Low30 °F (Nov 20, 12:20 AM)58% (Nov 19, 2:20 PM)29.56 "Hg (Nov 15, 4:50 PM)
Average43 °F94%29.92 "Hg
* Reported Nov 11 3:20 AM — Nov 26 3:50 AM, Köniz, Weather by CustomWeather, © 2014

Note: Actual official high and low records may vary slightly from our data, if they occured in-between our weather recording intervals... More about our weather records

Advertising

Köniz weather history for previous 24 hours

 ConditionsComfort  
Time TempWeatherWind HumidityBarometerVisibility
3:50 AM
Nov 26
46 °FLow clouds.3 mph100%30.01 "Hg5 mi
3:20 AM46 °FLow clouds.1 mph100%30.01 "Hg4 mi
2:50 AM46 °FLow clouds.2 mph100%30.01 "Hg4 mi
2:20 AM46 °FPartly cloudy.1 mph100%30.01 "Hg3 mi
1:50 AM46 °FLow clouds.1 mph100%30.04 "Hg3 mi
1:20 AM46 °FPartly cloudy.1 mph100%30.04 "Hg4 mi
12:50 AM46 °FPartly cloudy.1 mph93%30.04 "Hg4 mi
12:20 AM46 °FLow clouds.2 mph100%30.04 "HgN/A
11:50 PM
Nov 25
46 °FLow clouds.1 mph93%30.04 "Hg4 mi
11:20 PM46 °FPartly cloudy.1 mph93%30.07 "Hg5 mi
10:50 PM46 °FMostly cloudy.1 mph93%30.07 "HgN/A
10:20 PM46 °FFog.1 mph93%30.04 "Hg2 mi
9:50 PM46 °FFog.1 mph100%30.07 "Hg2 mi
9:20 PM46 °FFog.3 mph100%30.07 "Hg2 mi
8:50 PM46 °FFog.5 mph100%30.07 "Hg2 mi
8:20 PM46 °FFog.3 mph100%30.07 "Hg2 mi
7:50 PM46 °FFog.3 mph100%30.07 "Hg2 mi
7:20 PM46 °FFog.2 mph100%30.07 "Hg3 mi
6:50 PM46 °FFog.5 mph100%30.07 "Hg2 mi
6:20 PM46 °FFog.2 mph100%30.07 "Hg2 mi
5:50 PM46 °FFog.2 mph100%30.07 "Hg2 mi
5:20 PM48 °FFog.3 mph94%30.07 "Hg2 mi
4:50 PM48 °FFog.3 mph94%30.07 "Hg2 mi
4:20 PM48 °FFog.3 mph94%30.07 "Hg2 mi
3:50 PM48 °FFog.6 mph94%30.07 "Hg2 mi
3:20 PM48 °FFog.5 mph94%30.07 "Hg3 mi
2:50 PM48 °FFog.3 mph94%30.07 "Hg3 mi
2:20 PM48 °FFog.2 mph94%30.07 "Hg3 mi
1:50 PM48 °FFog.3 mph94%30.09 "Hg3 mi
1:20 PM48 °FFog.2 mph94%30.09 "Hg3 mi
12:50 PM48 °FFog.3 mph94%30.09 "Hg3 mi
12:20 PM48 °FFog.5 mph94%30.12 "Hg3 mi
11:50 AM48 °FFog.5 mph94%30.12 "Hg3 mi
11:20 AM48 °FFog.3 mph94%30.12 "Hg3 mi
10:50 AM48 °FLow clouds.3 mph94%30.12 "Hg3 mi
10:20 AM48 °FLow clouds.3 mph94%30.12 "Hg3 mi
9:50 AM48 °FLow clouds.3 mph94%30.12 "Hg3 mi
9:20 AM46 °FLow clouds.2 mph100%30.12 "Hg3 mi
8:50 AM46 °FLow clouds.1 mph100%30.12 "Hg3 mi
8:20 AM46 °FLow clouds.No wind100%30.12 "Hg2 mi
7:50 AM46 °FLow clouds.1 mph100%30.12 "Hg2 mi
7:20 AM46 °FPassing clouds.1 mph100%30.12 "Hg4 mi
6:50 AM46 °FPassing clouds.2 mph100%30.12 "Hg6 mi
6:20 AM46 °FPassing clouds.3 mph100%30.12 "HgN/A
5:50 AM46 °FPassing clouds.6 mph100%30.12 "HgN/A
5:20 AM46 °FPartly cloudy.6 mph100%30.12 "Hg5 mi
Weather by CustomWeather, © 2014

See weather overviewHow to use our weather pages